User: anonymous   Login
Location: Santa Teresa Spring
(37.2333°N, 121.7000°W)
Time: 16:22:11
(UTC-07:00)
Language:

Cosmos 1633 - Orbit

View from above orbital plane
View from above orbital plane
View from above satellite
View from above satellite

Ground track
Ground track

The orbit data is extracted from the following two-line orbital elements,

1 15592U 85020A   18109.79807297  .00001162  00000-0  39350-4 0  9999
2 15592  82.5406  11.8857 0013602 165.0545 195.1100 15.29436008811147
Epoch (UTC): 19 April 2018 19:09:13
Eccentricity: 0.0013602
inclination: 82.5406°
perigee height: 468 km
apogee height: 487 km
right ascension of ascending node: 11.8857°
argument of perigee: 165.0545°
revolutions per day: 15.29436008
mean anomaly at epoch: 195.1100°
orbit number at epoch: 81114

The dashed part of the orbit path shows where the satellite is in the earth's shadow,  

DLR